Regional Weather Roundup
Issued by NWS

Home | Current Version | Previous Version | Text Only | Print | Product List | Glossary On
Versions: 1 2 3 4 5 6 7 8 9 10 11 12 13 14 15 16 17 18 19 20 21 22 23 24 25 26 27 28 29 30 31 32 33 34 35 36 37 38 39 40 41 42 43 44 45 46 47 48 49 50
000
ASUS43 KLMK 301202
RWRKY
KENTUCKY REGIONAL WEATHER ROUNDUP
NATIONAL WEATHER SERVICE LOUISVILLE KY
800 AM EDT THU OCT 30 2014

NOTE "FAIR" INDICATES FEW OR NO CLOUDS BELOW 12,000 FEET
WITH NO SIGNIFICANT WEATHER AND/OR OBSTRUCTIONS TO VISIBILITY.

KYZ001>023-026-027-061>063-070>075-301300-
WESTERN AND SOUTH CENTRAL KENTUCKY

CITY           SKY/WX    TMP DP  RH WIND       PRES   REMARKS
PADUCAH        CLEAR     35  33  92 CALM      30.16S
HENDERSON      CLEAR     32  28  86 CALM      30.17S
OWENSBORO      CLEAR     37  36  96 CALM      30.18S
HOPKINSVILLE   CLEAR     36  36 100 CALM      30.17R
BOWLING GREEN  CLEAR     37  35  92 CALM      30.17R
GLASGOW        CLEAR     34  34 100 CALM      30.16R
$$

KYZ024-025-028>034-038-045-046-053-301300-
NORTH CENTRAL KENTUCKY

CITY           SKY/WX    TMP DP  RH WIND       PRES   REMARKS
LOUISVILLE/SDF PTCLDY    41  36  82 CALM      30.17S
LOUISVILLE/LOU CLEAR     37  34  89 CALM      30.18R
FORT KNOX      CLEAR     33  32  95 N2        30.16R
$$

KYZ035>037-039>044-047>052-055>060-089>105-301300-
NORTHEAST KENTUCKY

CITY           SKY/WX    TMP DP  RH WIND       PRES   REMARKS
LEXINGTON      CLEAR     37  33  85 CALM      30.15R
COVINGTON      PTCLDY    38  32  79 NW5       30.16R WCI  34
FRANKFORT      CLOUDY    34  32  92 CALM      30.15S
$$

KYZ054-064>069-076>088-106>120-301300-
SOUTHEAST KENTUCKY

CITY           SKY/WX    TMP DP  RH WIND       PRES   REMARKS
JACKSON        CLEAR     38  33  82 CALM      30.13R
LONDON         CLEAR     39  34  82 CALM      30.13S
SOMERSET       CLEAR     34  34 100 CALM      30.16R
MIDDLESBORO    FOG       35  35 100 CALM      30.14R VSB 1/4
MONTICELLO     SUNNY     34  33  96 CALM      30.16S FOG
$$




USA.gov is the U.S. government's official web portal to all federal, state and local government web resources and services.